[[[{"header":{"parameterUnit":"kt","parameterCategory":2,"dx":1,"dy":1,"la1":30.253999710083008,"la2":30.299108505249023,"lo1":-89.0895004272461,"lo2":-89.04439544677734,"nx":28,"ny":28,"refTime":"2022-10-17T21:00:00:Z","depth":0,"parameterNumber":1,"parameterNumberName":"U-component_of_WINDS"},"data":[1.4039,1.4057,1.4115,1.4164,1.4225,1.4269,1.4304,1.4357,1.4414,1.4478,1.4527,1.4591,1.4674,1.475,1.4808,1.4836,1.4855,1.482,1.4859,1.4961,1.4979,1.4996,1.4993,1.4824,1.4824,1.4743,1.4743,1.4742,1.4114,1.4173,1.4215,1.4295,1.4333,1.4403,1.4474,1.4502,1.4541,1.4612,1.4662,1.4724,1.4783,1.4881,1.4948,1.4963,1.5,1.4977,1.4975,1.4987,1.5099,1.5095,1.4946,1.4946,1.4946,1.4946,1.4946,1.4946,1.4265,1.4273,1.4354,1.44,1.4457,1.4512,1.4531,1.4607,1.4651,1.4724,1.4788,1.4835,1.492,1.503,1.5083,1.5124,1.5161,1.5154,1.5152,1.5148,1.5135,1.5242,1.5139,1.514,1.514,1.5141,1.5141,0,1.4392,1.4439,1.4482,1.4544,1.4581,1.4635,1.4695,1.4709,1.4833,1.4864,1.4916,1.4957,1.5039,1.5096,1.5173,1.523,1.5306,1.5321,1.5317,1.5283,1.5245,1.5264,1.5443,1.5322,1.5324,1.5325,1.5326,1.5327,1.4546,1.4549,1.4661,1.4685,1.4731,1.4767,1.4801,1.4909,1.4941,1.5033,1.5037,1.5096,1.5148,1.5225,1.5316,1.5379,1.5415,1.5363,1.5425,1.5395,1.5413,1.541,1.5412,1.5347,1.5344,1.5342,1.534,0,1.4627,1.472,1.4743,1.4855,1.4884,1.4882,1.498,1.4995,1.5067,1.5098,1.5112,1.5225,1.5276,1.5376,1.5455,1.5507,1.5512,1.5548,1.5484,1.5495,1.5457,1.5459,1.5319,1.5307,1.5485,1.5483,1.5482,0,1.4794,1.4794,1.4933,1.4941,1.4946,1.5053,1.5056,1.5118,1.5189,1.5214,1.5316,1.5338,1.5462,1.5501,1.5576,1.5599,1.5614,1.5654,1.5673,1.5643,1.5637,1.566,1.5666,1.5719,1.572,1.5721,1.5721,0,1.4908,1.4983,1.4997,1.5029,1.5148,1.5153,1.5204,1.5284,1.5316,1.5376,1.5399,1.5461,1.5495,1.5544,1.5638,1.5676,1.5669,1.5741,1.571,1.5707,1.5699,1.5697,1.5552,1.5722,1.5722,1.5722,1.5722,0,1.5055,1.5108,1.5115,1.5217,1.5232,1.5243,1.5308,1.534,1.5418,1.5465,1.5513,1.5591,1.5618,1.5683,1.5724,1.5747,1.5776,1.5817,1.5816,1.5821,1.589,1.5791,1.5645,1.5632,1.5832,1.5833,1.5834,0,1.516,1.5191,1.5281,1.5286,1.5314,1.5423,1.5438,1.5502,1.5566,1.5601,1.5674,1.5713,1.5782,1.5808,1.5816,1.5891,1.5862,1.5899,1.5951,1.5952,1.5923,1.5791,1.5742,1.5666,1.5847,1.5846,1.5845,0,1.5252,1.5392,1.5386,1.5427,1.5526,1.555,1.5567,1.5628,1.5646,1.5708,1.5725,1.5784,1.5839,1.588,1.595,1.5952,1.5886,1.601,1.6014,1.5983,1.5862,1.5816,1.5803,1.5933,1.5931,1.593,1.5855,0,1.545,1.5477,1.5466,1.5549,1.5583,1.5591,1.5691,1.5715,1.5777,1.5842,1.5871,1.5949,1.6012,1.6024,1.6085,1.6058,1.6078,1.6135,1.6201,1.6114,1.6092,1.6083,1.6227,1.6229,1.6231,1.6233,0,0,1.5526,1.5565,1.5661,1.5678,1.5712,1.5823,1.5823,1.587,1.596,1.5983,1.6022,1.6114,1.6175,1.6199,1.618,1.6206,1.6211,1.6235,1.6156,1.6146,1.6138,1.6113,1.6102,1.6237,1.6238,1.6239,1.6239,0,1.5617,1.5673,1.567,1.5722,1.5802,1.587,1.5869,1.5968,1.601,1.6036,1.6128,1.6157,1.6227,1.628,1.6316,1.6237,1.6303,1.6249,1.6171,1.6174,1.6162,1.6152,1.6123,1.6112,1.6245,1.6244,1.6244,0,1.5723,1.5794,1.5803,1.5883,1.5936,1.5962,1.6057,1.608,1.6101,1.6221,1.6245,1.6302,1.6381,1.6389,1.6397,1.6432,1.6382,1.6416,1.6405,1.6407,1.6415,1.64,1.6387,1.6557,1.6558,1.6559,0,0,1.5788,1.5813,1.5921,1.591,1.5937,1.6037,1.6061,1.6124,1.619,1.6216,1.6289,1.6353,1.6396,1.6421,1.6466,1.6461,1.6486,1.645,1.6435,1.6423,1.6418,1.6422,1.6407,1.6561,1.6561,1.6561,0,0,1.582,1.5944,1.5993,1.5992,1.6051,1.6158,1.6148,1.6212,1.6261,1.6271,1.6381,1.6402,1.6412,1.6464,1.6485,1.6491,1.6556,1.6553,1.6456,1.6438,1.6424,1.641,1.6593,0,0,0,0,0,1.5962,1.5929,1.5972,1.5986,1.6088,1.6134,1.6148,1.6235,1.6279,1.627,1.6342,1.6411,1.6499,1.652,1.6534,1.6508,1.6593,1.6588,1.6582,1.6457,1.6438,1.6421,0,0,0,0,0,0,1.5968,1.5985,1.5973,1.6076,1.61,1.6136,1.623,1.6253,1.6283,1.6295,1.6395,1.6415,1.6492,1.6519,1.6531,1.6503,1.6589,1.6591,1.6586,1.6582,1.645,1.6434,1.6421,0,0,0,0,0,1.5974,1.5988,1.6126,1.6078,1.6099,1.6207,1.6231,1.6252,1.6276,1.6386,1.6407,1.634,1.6488,1.6504,1.6526,1.6496,1.6582,1.6586,1.6588,1.6584,1.6581,1.6442,0,0,0,0,0,0,1.5978,1.6008,1.6133,1.6142,1.6096,1.6207,1.6228,1.625,1.6367,1.6387,1.6335,1.6344,1.6486,1.6499,1.651,1.6488,1.6576,1.658,1.6583,1.6585,1.6582,1.6579,0,0,0,0,0,0,1.6001,1.6015,1.6138,1.6155,1.6168,1.6207,1.6225,1.6256,1.6367,1.6311,1.6321,1.6338,1.647,1.6494,1.6504,1.655,1.6572,1.6576,1.6578,1.658,1.6583,1.658,0,0,0,0,0,0,1.6008,1.6021,1.6153,1.6163,1.6174,1.629,1.6237,1.6336,1.6379,1.6304,1.6386,1.6389,1.6463,1.6475,1.6499,1.654,1.6547,1.6572,1.6575,1.6576,1.6578,0,0,0,0,0,0,0,1.6015,1.5911,1.6075,1.6169,1.6179,1.6232,1.6234,1.6237,1.638,1.6383,1.6385,1.6388,1.6551,1.6555,1.6559,1.6532,0,0,1.6572,1.6574,0,0,0,0,0,0,0,0,1.5908,1.591,1.6075,1.6077,1.6079,1.6232,1.6234,1.6237,1.638,1.6383,1.6385,1.6387,1.6552,1.6555,1.6558,0,0,0,0,0,0,0,0,0,0,0,0,0,0,0,1.6075,1.6077,0,1.6232,1.6234,1.6236,1.6381,1.6382,1.6384,1.6386,1.6553,1.6555,1.6558,0,0,0,0,0,0,0,0,0,0,0,0,0,0,0,0,0,0,0,0,0,0,0,0,0,0,0,0,0,0,0,0,0,0,0,0,0,0,0,0,0,0,0,0,0,0,0,0,0,0,0,0,0,0,0,0,0,0,0,0,0,0,0,0,0,0,0,0,0]}],[{"header":{"parameterUnit":"kt","parameterCategory":2,"dx":1,"dy":1,"la1":30.253999710083008,"la2":30.299108505249023,"lo1":-89.0895004272461,"lo2":-89.04439544677734,"nx":28,"ny":28,"refTime":"2022-10-17T21:00:00:Z","depth":0,"parameterNumber":2,"parameterNumberName":"V-component_of_WINDS"},"data":[-2.6467,-2.6496,-2.6552,-2.6612,-2.6671,-2.6722,-2.6758,-2.681,-2.6866,-2.6933,-2.6982,-2.7039,-2.7115,-2.7186,-2.7242,-2.7266,-2.7288,-2.7261,-2.7295,-2.7365,-2.7378,-2.7391,-2.7389,-2.7264,-2.7263,-2.7217,-2.7216,-2.7216,-2.6524,-2.6583,-2.6629,-2.6711,-2.6752,-2.6813,-2.6883,-2.6913,-2.6956,-2.7023,-2.7072,-2.7135,-2.7191,-2.7277,-2.734,-2.7357,-2.739,-2.7371,-2.7373,-2.7385,-2.746,-2.7458,-2.7345,-2.7345,-2.7345,-2.7345,-2.7345,-2.7345,-2.6643,-2.6657,-2.6739,-2.679,-2.6845,-2.6899,-2.6922,-2.6992,-2.7037,-2.7109,-2.7163,-2.7211,-2.7288,-2.7388,-2.7434,-2.7475,-2.7505,-2.7501,-2.7501,-2.75,-2.7494,-2.7566,-2.7487,-2.7487,-2.7488,-2.7488,-2.7488,0,-2.6749,-2.6794,-2.684,-2.6903,-2.6942,-2.6996,-2.7053,-2.7069,-2.7179,-2.7211,-2.7262,-2.7301,-2.7376,-2.7431,-2.75,-2.7548,-2.7614,-2.7623,-2.7623,-2.7601,-2.7575,-2.7595,-2.7722,-2.7625,-2.7627,-2.7628,-2.7629,-2.7629,-2.6879,-2.6885,-2.6994,-2.702,-2.7064,-2.7101,-2.7136,-2.7232,-2.7263,-2.7348,-2.7355,-2.7409,-2.7458,-2.7529,-2.7608,-2.7663,-2.7696,-2.7655,-2.7704,-2.7684,-2.7703,-2.7703,-2.7708,-2.7644,-2.7642,-2.764,-2.7639,0,-2.6948,-2.7035,-2.7062,-2.7168,-2.7195,-2.7197,-2.7288,-2.7304,-2.7368,-2.74,-2.7413,-2.7513,-2.7559,-2.7645,-2.7713,-2.7758,-2.7769,-2.7796,-2.7747,-2.7759,-2.7735,-2.7738,-2.7631,-2.7625,-2.775,-2.7749,-2.7747,0,-2.7095,-2.7098,-2.7229,-2.7239,-2.7248,-2.7345,-2.7351,-2.7406,-2.7471,-2.7497,-2.7583,-2.7605,-2.771,-2.7745,-2.7808,-2.7832,-2.7843,-2.788,-2.7897,-2.7875,-2.7871,-2.7894,-2.7902,-2.7929,-2.7929,-2.793,-2.793,0,-2.7198,-2.7267,-2.7285,-2.7315,-2.7426,-2.7432,-2.7478,-2.755,-2.758,-2.7633,-2.7655,-2.7707,-2.7737,-2.7778,-2.786,-2.7891,-2.7888,-2.7948,-2.7926,-2.7924,-2.7922,-2.7922,-2.7804,-2.7931,-2.7931,-2.7931,-2.7931,0,-2.733,-2.7381,-2.739,-2.7487,-2.7501,-2.751,-2.7572,-2.7599,-2.7668,-2.7709,-2.775,-2.7818,-2.784,-2.7895,-2.793,-2.7949,-2.7974,-2.801,-2.8009,-2.802,-2.8079,-2.8007,-2.7881,-2.7874,-2.8027,-2.8028,-2.8029,0,-2.7429,-2.7459,-2.7542,-2.7547,-2.7574,-2.7673,-2.7685,-2.7741,-2.7797,-2.7829,-2.789,-2.7922,-2.798,-2.8002,-2.8008,-2.8072,-2.8047,-2.8077,-2.8126,-2.8127,-2.8111,-2.7995,-2.7958,-2.7899,-2.804,-2.8039,-2.8038,0,-2.7515,-2.7647,-2.7641,-2.7682,-2.777,-2.779,-2.7802,-2.7856,-2.7874,-2.7923,-2.794,-2.7982,-2.8032,-2.8064,-2.8123,-2.8124,-2.8067,-2.8174,-2.8177,-2.8157,-2.8049,-2.8015,-2.8005,-2.8107,-2.8106,-2.8105,-2.8046,0,-2.7708,-2.7731,-2.7718,-2.7796,-2.7824,-2.7828,-2.7918,-2.7937,-2.7993,-2.8051,-2.807,-2.8134,-2.8185,-2.8192,-2.8243,-2.8216,-2.8235,-2.8283,-2.8344,-2.8265,-2.8249,-2.8241,-2.8362,-2.8365,-2.8366,-2.8368,0,0,-2.7784,-2.7818,-2.7905,-2.7919,-2.7949,-2.8049,-2.8047,-2.8086,-2.8162,-2.8181,-2.8216,-2.8286,-2.8334,-2.8348,-2.833,-2.8348,-2.8353,-2.8374,-2.83,-2.8292,-2.8285,-2.8266,-2.8257,-2.8371,-2.8372,-2.8373,-2.8373,0,-2.7874,-2.7921,-2.7916,-2.7962,-2.8033,-2.8093,-2.8092,-2.8178,-2.8214,-2.8231,-2.8312,-2.8333,-2.8381,-2.8426,-2.8454,-2.8375,-2.8435,-2.8383,-2.8314,-2.8316,-2.8306,-2.8297,-2.8275,-2.8266,-2.8378,-2.8378,-2.8378,0,-2.798,-2.8044,-2.8049,-2.8117,-2.8163,-2.8183,-2.8271,-2.8286,-2.8303,-2.8407,-2.8422,-2.8468,-2.8531,-2.8529,-2.8531,-2.8562,-2.8506,-2.8535,-2.8525,-2.8528,-2.8535,-2.8522,-2.851,-2.8661,-2.8662,-2.8663,0,0,-2.8045,-2.8064,-2.8161,-2.8143,-2.8166,-2.8255,-2.8273,-2.833,-2.8385,-2.8406,-2.8466,-2.8516,-2.8547,-2.8564,-2.8596,-2.858,-2.8603,-2.8567,-2.8553,-2.8542,-2.8538,-2.8542,-2.8529,-2.8665,-2.8665,-2.8665,0,0,-2.8076,-2.8188,-2.8234,-2.8224,-2.8274,-2.8367,-2.8352,-2.8411,-2.8448,-2.8458,-2.8552,-2.8569,-2.8568,-2.8608,-2.8631,-2.862,-2.8679,-2.8675,-2.8594,-2.8579,-2.8566,-2.8557,-2.8728,0,0,0,0,0,-2.8213,-2.8175,-2.8216,-2.8227,-2.8309,-2.8344,-2.8356,-2.8434,-2.8476,-2.8464,-2.8524,-2.8585,-2.8642,-2.8665,-2.8674,-2.8647,-2.8697,-2.8691,-2.8686,-2.8579,-2.8562,-2.8547,0,0,0,0,0,0,-2.8218,-2.8232,-2.8217,-2.8306,-2.8326,-2.8346,-2.8436,-2.8456,-2.848,-2.8491,-2.8572,-2.8587,-2.8653,-2.8665,-2.8672,-2.8645,-2.8726,-2.8695,-2.869,-2.8686,-2.8573,-2.8559,-2.8547,0,0,0,0,0,-2.8223,-2.8234,-2.8345,-2.8307,-2.8324,-2.842,-2.8438,-2.8456,-2.8475,-2.8566,-2.8584,-2.8532,-2.865,-2.8662,-2.867,-2.864,-2.8721,-2.8724,-2.8692,-2.8688,-2.8684,-2.8566,0,0,0,0,0,0,-2.8226,-2.825,-2.835,-2.8359,-2.8327,-2.842,-2.8437,-2.8454,-2.8549,-2.8567,-2.8531,-2.8539,-2.8648,-2.8657,-2.8665,-2.8634,-2.8718,-2.872,-2.8722,-2.8689,-2.8686,-2.8683,0,0,0,0,0,0,-2.8245,-2.8256,-2.8355,-2.8375,-2.8386,-2.842,-2.8435,-2.8451,-2.8549,-2.8509,-2.8519,-2.8533,-2.8635,-2.8653,-2.866,-2.8682,-2.8715,-2.8717,-2.8719,-2.872,-2.8686,-2.8684,0,0,0,0,0,0,-2.8251,-2.8261,-2.8374,-2.8382,-2.8392,-2.8488,-2.8435,-2.8515,-2.8568,-2.8503,-2.8575,-2.8578,-2.8629,-2.8638,-2.8656,-2.8674,-2.868,-2.8715,-2.8717,-2.8718,-2.8718,0,0,0,0,0,0,0,-2.8256,-2.8172,-2.8303,-2.8388,-2.8397,-2.8433,-2.8435,-2.8438,-2.8569,-2.8572,-2.8574,-2.8577,-2.8702,-2.8704,-2.8707,-2.8668,0,0,-2.8715,-2.8716,0,0,0,0,0,0,0,0,-2.8169,-2.8171,-2.8303,-2.8305,-2.8306,-2.8434,-2.8435,-2.8437,-2.8569,-2.8572,-2.8574,-2.8576,-2.8703,-2.8705,-2.8707,0,0,0,0,0,0,0,0,0,0,0,0,0,0,0,-2.8303,-2.8304,0,-2.8434,-2.8435,-2.8437,-2.857,-2.8571,-2.8573,-2.8575,-2.8703,-2.8705,-2.8707,0,0,0,0,0,0,0,0,0,0,0,0,0,0,0,0,0,0,0,0,0,0,0,0,0,0,0,0,0,0,0,0,0,0,0,0,0,0,0,0,0,0,0,0,0,0,0,0,0,0,0,0,0,0,0,0,0,0,0,0,0,0,0,0,0,0,0,0,0]}]]]